Satellite-Ground Cal/Val Region Overpasses Predictions

Prediction of Satellite NPP Overpassing Cal/Val Region: PacNW

Region Location: (Latitude: 10.00, Longitude: 139.50) to (Latitude: 22.70, Longitude: 165.60).

Table of predicted overpasses for the next 14.0 days since TLE Epoch: 8/28/2021
Interval Starting Time Starting Location Ending Time Ending Location
1 08/28/2021 02:46:37 ( 11.15, 157.91) 08/28/2021 02:49:53 ( 22.65, 155.16)
2 08/28/2021 15:18:10 ( 22.69, 155.41) 08/28/2021 15:21:46 ( 10.01, 152.39)
3 08/29/2021 02:27:16 ( 10.03, 162.92) 08/29/2021 02:30:51 ( 22.65, 159.92)
4 08/29/2021 14:59:09 ( 22.70, 160.17) 08/29/2021 15:02:45 ( 10.02, 157.15)
5 08/30/2021 02:10:46 ( 18.89, 165.60) 08/30/2021 02:11:50 ( 22.64, 164.67)
6 08/30/2021 03:49:45 ( 10.03, 142.30) 08/30/2021 03:53:06 ( 21.83, 139.50)
7 08/30/2021 14:40:07 ( 22.70, 164.93) 08/30/2021 14:43:43 ( 10.02, 161.91)
8 08/30/2021 16:21:37 ( 22.70, 139.55) 08/30/2021 16:21:40 ( 22.52, 139.51)
9 08/31/2021 03:30:43 ( 10.02, 147.06) 08/31/2021 03:34:18 ( 22.64, 144.06)
10 08/31/2021 16:02:37 ( 22.64, 144.29) 08/31/2021 16:06:12 ( 10.02, 141.29)
11 09/01/2021 03:11:42 ( 10.02, 151.82) 09/01/2021 03:15:18 ( 22.70, 148.80)
12 09/01/2021 15:43:36 ( 22.65, 149.05) 09/01/2021 15:47:11 ( 10.03, 146.05)
13 09/02/2021 02:52:40 ( 10.01, 156.58) 09/02/2021 02:56:16 ( 22.69, 153.56)
14 09/02/2021 15:24:34 ( 22.65, 153.81) 09/02/2021 15:28:09 ( 10.03, 150.80)
15 09/03/2021 02:33:39 ( 10.01, 161.33) 09/03/2021 02:37:15 ( 22.69, 158.32)
16 09/03/2021 15:05:33 ( 22.65, 158.57) 09/03/2021 15:09:08 ( 10.03, 155.56)
17 09/04/2021 02:15:14 ( 12.18, 165.59) 09/04/2021 02:18:13 ( 22.69, 163.07)
18 09/04/2021 03:56:07 ( 10.01, 140.72) 09/04/2021 03:57:36 ( 15.24, 139.50)
19 09/04/2021 14:46:31 ( 22.66, 163.32) 09/04/2021 14:50:06 ( 10.04, 160.32)
20 09/05/2021 03:37:06 ( 10.01, 145.47) 09/05/2021 03:40:42 ( 22.69, 142.45)
21 09/05/2021 14:30:27 ( 12.27, 165.59) 09/05/2021 14:31:05 ( 10.04, 165.08)
22 09/05/2021 16:09:00 ( 22.66, 142.71) 09/05/2021 16:12:35 ( 10.04, 139.70)
23 09/06/2021 03:18:04 ( 10.01, 150.23) 09/06/2021 03:21:40 ( 22.69, 147.21)
24 09/06/2021 15:49:58 ( 22.66, 147.46) 09/06/2021 15:53:33 ( 10.04, 144.46)
25 09/07/2021 02:59:03 ( 10.00, 154.99) 09/07/2021 03:02:39 ( 22.69, 151.97)
26 09/07/2021 15:30:57 ( 22.66, 152.22) 09/07/2021 15:34:32 ( 10.04, 149.22)
27 09/08/2021 02:40:02 ( 10.00, 159.75) 09/08/2021 02:43:38 ( 22.69, 156.73)
28 09/08/2021 15:11:55 ( 22.66, 156.98) 09/08/2021 15:15:30 ( 10.04, 153.97)
29 09/09/2021 02:21:00 ( 10.00, 164.50) 09/09/2021 02:24:36 ( 22.68, 161.48)
30 09/09/2021 14:52:54 ( 22.66, 161.74) 09/09/2021 14:56:29 ( 10.04, 158.73)
31 09/10/2021 03:43:29 ( 10.01, 143.88) 09/10/2021 03:47:05 ( 22.69, 140.87)
32 09/10/2021 14:34:54 ( 19.03, 165.60) 09/10/2021 14:37:27 ( 10.05, 163.49)
